Location: *
(43.0409°N, 0.1694°E)
Time: 11:20:42
(UTC+00:00)

USA 229 DEB - Pass Details

Date: 03 October 2023
Orbit: 905 x 1307 km, 63.4° (Epoch: 10 November)

Event Time Altitude Azimuth Distance (km) Brightness Sun altitude
Rises 04:07:26 0° 323° (NW) 3,997 6.5 -20.9°
Reaches altitude 10° 04:10:03 10° 322° (NW) 3,087 5.9 -20.5°
Maximum altitude 04:17:34 84° 237° (WSW) 1,254 3.9 -19.1°
Drops below altitude 10° 04:25:37 10° 150° (SSE) 3,294 6.5 -17.7°
Sets 04:28:29 0° 149° (SSE) 4,277 7.1 -17.2°
